User: anonymous   Login
Location: Unspecified
(0.0000°N, 0.0000°E)
Time: 11:49:18
(UTC+00:00)
Language:

PEGASUS - Orbit

View from above orbital plane
View from above orbital plane
View from above satellite
View from above satellite

Ground track
Ground track

The orbit data is extracted from the following two-line orbital elements,

1 42784U 17036V   18168.83836163 +.00000883 +00000-0 +42051-4 0  9999
2 42784 097.4010 228.6029 0014063 076.8572 283.4232 15.21663185054614
Epoch (UTC): 17 June 2018 20:07:14
Eccentricity: 0.0014063
inclination: 97.4010°
perigee height: 491 km
apogee height: 510 km
right ascension of ascending node: 228.6029°
argument of perigee: 76.8572°
revolutions per day: 15.21663185
mean anomaly at epoch: 283.4232°
orbit number at epoch: 5461

The dashed part of the orbit path shows where the satellite is in the earth's shadow,  

DLR